SWA2406 KDAL-KMIA

Flight info

Callsign SWA2406
Flight time 2h 12m
Altitude 39000
Route LNDRE5 ZALEA BLVNS Y290 DOWRY FROGZ5
Aircraft B737/M-SDE2E3FGHIRWXY/LB1

Departure

Time 2026-04-30 18:46
Airport Dallas Love Field (KDAL)

Arrival

Time 2026-04-30 20:58
Airport Miami International Airport (KMIA)
Time Latitude Longitude Altitude Speed Heading
2026-04-30 18:16 32.84565 -96.85154 482 ft 0 kts
2026-04-30 18:36 32.84564 -96.85154 482 ft 1 kts
2026-04-30 18:37 32.84540 -96.85154 478 ft 4 kts 354°
2026-04-30 18:37 32.84516 -96.85146 474 ft 4 kts 306°
2026-04-30 18:37 32.84512 -96.85136 482 ft 0 kts 270°
2026-04-30 18:41 32.84512 -96.85154 465 ft 5 kts 270°
2026-04-30 18:42 32.84512 -96.85218 482 ft 10 kts 271°
2026-04-30 18:42 32.84586 -96.85338 480 ft 13 kts
2026-04-30 18:42 32.84692 -96.85325 480 ft 17 kts
2026-04-30 18:45 32.85622 -96.85784 479 ft 11 kts 23°
2026-04-30 18:45 32.85679 -96.85721 484 ft 11 kts 44°
2026-04-30 18:45 32.85709 -96.85663 485 ft 7 kts 100°
2026-04-30 18:46 32.85665 -96.85605 485 ft 22 kts 136°
2026-04-30 18:46 32.85345 -96.85235 483 ft 107 kts 135°
2026-04-30 18:46 32.84629 -96.84399 499 ft 176 kts 137°
2026-04-30 18:46 32.83687 -96.83344 1247 ft 188 kts 131°
2026-04-30 18:47 32.82729 -96.82240 2232 ft 198 kts 134°
2026-04-30 18:47 32.81627 -96.81069 2719 ft 224 kts 136°
2026-04-30 18:47 32.80441 -96.79832 3478 ft 238 kts 136°
2026-04-30 18:47 32.79147 -96.78467 4174 ft 254 kts 137°
2026-04-30 18:48 32.77810 -96.77050 5126 ft 263 kts 139°
2026-04-30 18:48 32.76408 -96.75561 5682 ft 276 kts 141°
2026-04-30 18:48 32.74990 -96.74005 6207 ft 288 kts 138°
2026-04-30 18:48 32.73541 -96.72324 7093 ft 294 kts 138°
2026-04-30 18:49 32.72073 -96.70612 8076 ft 297 kts 139°
2026-04-30 18:49 32.70576 -96.68864 9010 ft 305 kts 138°
2026-04-30 18:49 32.69122 -96.66981 9847 ft 316 kts 124°
2026-04-30 18:49 32.68283 -96.64560 10649 ft 328 kts 101°
2026-04-30 18:50 32.68126 -96.61758 11001 ft 351 kts 90°
2026-04-30 18:50 32.68125 -96.58819 11711 ft 359 kts 90°
2026-04-30 18:50 32.68106 -96.55822 12431 ft 369 kts 91°
2026-04-30 18:50 32.68089 -96.52751 13253 ft 373 kts 89°
2026-04-30 18:51 32.68270 -96.49654 13987 ft 382 kts 85°
2026-04-30 18:51 32.68563 -96.46492 14644 ft 389 kts 84°
2026-04-30 18:51 32.68873 -96.43272 15331 ft 396 kts 84°
2026-04-30 18:51 32.69161 -96.39983 15972 ft 405 kts 85°
2026-04-30 18:52 32.69430 -96.36624 16658 ft 412 kts 85°
2026-04-30 18:52 32.69682 -96.33212 17353 ft 418 kts 88°
2026-04-30 18:52 32.69637 -96.29741 17959 ft 424 kts 96°
2026-04-30 18:52 32.69401 -96.26223 18086 ft 430 kts 98°
2026-04-30 18:53 32.69105 -96.22711 18579 ft 435 kts 98°
2026-04-30 18:53 32.68805 -96.19132 19373 ft 434 kts 98°
2026-04-30 18:53 32.68525 -96.15563 20074 ft 436 kts 97°
2026-04-30 18:53 32.68262 -96.11950 20694 ft 441 kts 96°
2026-04-30 18:54 32.68010 -96.08301 21293 ft 445 kts 96°
2026-04-30 18:54 32.67762 -96.04623 21894 ft 449 kts 96°
2026-04-30 18:54 32.67512 -96.00898 22496 ft 453 kts 96°
2026-04-30 18:54 32.67261 -95.97159 23082 ft 457 kts 96°
2026-04-30 18:55 32.67008 -95.93433 23646 ft 461 kts 95°
2026-04-30 18:55 32.66484 -95.85788 24554 ft 470 kts 95°
2026-04-30 18:55 32.66214 -95.81892 25000 ft 474 kts 96°
2026-04-30 18:56 32.65663 -95.74009 25912 ft 482 kts 96°
2026-04-30 18:56 32.65383 -95.70034 26433 ft 486 kts 96°
2026-04-30 18:56 32.65196 -95.67380 26713 ft 489 kts 96°
2026-04-30 18:57 32.64619 -95.59251 27533 ft 498 kts 96°
2026-04-30 18:57 32.64326 -95.55134 27943 ft 502 kts 96°
2026-04-30 18:57 32.64029 -95.50991 28340 ft 506 kts 96°
2026-04-30 18:58 32.63425 -95.42612 29144 ft 513 kts 96°
2026-04-30 18:58 32.63117 -95.38377 29545 ft 516 kts 96°
2026-04-30 18:58 32.62806 -95.34123 29928 ft 520 kts 96°
2026-04-30 18:59 32.62173 -95.25509 30605 ft 527 kts 96°
2026-04-30 19:00 32.61200 -95.12435 31561 ft 535 kts 96°
2026-04-30 19:00 32.60869 -95.08030 31853 ft 538 kts 96°
2026-04-30 19:00 32.60198 -94.99153 32440 ft 543 kts 96°
2026-04-30 19:01 32.59514 -94.90198 33034 ft 548 kts 96°
2026-04-30 19:01 32.59169 -94.85703 33424 ft 548 kts 96°
2026-04-30 19:02 32.58399 -94.76782 34201 ft 545 kts 104°
2026-04-30 19:02 32.56160 -94.68267 34889 ft 538 kts 113°
2026-04-30 19:03 32.53664 -94.59925 35531 ft 537 kts 113°
2026-04-30 19:03 32.51218 -94.51559 36172 ft 535 kts 112°
2026-04-30 19:04 32.48844 -94.43220 36813 ft 533 kts 112°
2026-04-30 19:04 32.46488 -94.34903 37440 ft 531 kts 113°
2026-04-30 19:05 32.44148 -94.26681 38005 ft 529 kts 113°
2026-04-30 19:05 32.41788 -94.18432 38519 ft 528 kts 113°
2026-04-30 19:06 32.39425 -94.10198 38970 ft 526 kts 113°
2026-04-30 19:06 32.35867 -93.97847 39039 ft 528 kts 113°
2026-04-30 19:07 32.32317 -93.85559 39037 ft 524 kts 114°
2026-04-30 19:08 32.27611 -93.69363 39035 ft 520 kts 114°
2026-04-30 19:09 32.24073 -93.57240 39029 ft 519 kts 114°
2026-04-30 19:09 32.21711 -93.49220 39025 ft 519 kts 117°
2026-04-30 19:10 32.17964 -93.42203 39060 ft 500 kts 136°
2026-04-30 19:10 32.13586 -93.35759 39029 ft 504 kts 137°
2026-04-30 19:11 32.07018 -93.26020 39025 ft 510 kts 136°
2026-04-30 19:12 32.02637 -93.19402 39010 ft 512 kts 136°
2026-04-30 19:12 31.98251 -93.12756 39005 ft 514 kts 136°
2026-04-30 19:13 31.89469 -92.99493 38994 ft 511 kts 136°
2026-04-30 19:14 31.85098 -92.92917 38997 ft 509 kts 136°
2026-04-30 19:14 31.80739 -92.86372 38996 ft 507 kts 136°
2026-04-30 19:15 31.76423 -92.79902 38996 ft 504 kts 136°
2026-04-30 19:15 31.69939 -92.70204 38988 ft 501 kts 136°
2026-04-30 19:16 31.65660 -92.63818 38978 ft 499 kts 136°
2026-04-30 19:17 31.59235 -92.54248 38971 ft 496 kts 136°
2026-04-30 19:17 31.52835 -92.44741 38961 ft 494 kts 136°
2026-04-30 19:18 31.46430 -92.35251 38960 ft 495 kts 136°
2026-04-30 19:19 31.42147 -92.28918 38958 ft 496 kts 136°
2026-04-30 19:19 31.36763 -92.20971 38953 ft 498 kts 136°
2026-04-30 19:20 31.33965 -92.16846 38959 ft 499 kts 136°
2026-04-30 19:21 31.27456 -92.07268 38978 ft 501 kts 135°
2026-04-30 19:22 31.18777 -91.94531 38974 ft 502 kts 135°
2026-04-30 19:23 31.05719 -91.75446 38966 ft 499 kts 135°
2026-04-30 19:24 30.99227 -91.65994 38952 ft 496 kts 135°
2026-04-30 19:25 30.88493 -91.50417 38935 ft 492 kts 135°
2026-04-30 19:26 30.79924 -91.38027 38935 ft 490 kts 135°
2026-04-30 19:27 30.73500 -91.28765 38945 ft 490 kts 135°
2026-04-30 19:28 30.67092 -91.19547 38947 ft 491 kts 135°
2026-04-30 19:29 30.58497 -91.07215 38944 ft 492 kts 135°
2026-04-30 19:30 30.49867 -90.94872 38952 ft 493 kts 135°
2026-04-30 19:31 30.41204 -90.82519 38934 ft 493 kts 135°
2026-04-30 19:31 30.34723 -90.73302 38932 ft 491 kts 134°
2026-04-30 19:32 30.30411 -90.67183 38943 ft 490 kts 134°
2026-04-30 19:32 30.26103 -90.61079 38932 ft 489 kts 134°
2026-04-30 19:33 30.21800 -90.54991 38940 ft 488 kts 134°
2026-04-30 19:33 30.17498 -90.48913 38938 ft 488 kts 134°
2026-04-30 19:34 30.13194 -90.42844 38941 ft 488 kts 134°
2026-04-30 19:35 30.06722 -90.33733 38936 ft 490 kts 134°
2026-04-30 19:35 30.02391 -90.27648 38947 ft 491 kts 134°
2026-04-30 19:36 29.98038 -90.21541 38924 ft 494 kts 134°
2026-04-30 19:36 29.91471 -90.12344 38946 ft 496 kts 134°
2026-04-30 19:37 29.87080 -90.06206 38948 ft 497 kts 134°
2026-04-30 19:37 29.82677 -90.00062 38933 ft 498 kts 134°
2026-04-30 19:38 29.78263 -89.93911 38947 ft 498 kts 134°
2026-04-30 19:38 29.73848 -89.87767 38940 ft 498 kts 134°
2026-04-30 19:39 29.69426 -89.81625 38933 ft 498 kts 134°
2026-04-30 19:39 29.65756 -89.76532 38935 ft 498 kts 134°
2026-04-30 19:40 29.61335 -89.70407 38931 ft 497 kts 135°
2026-04-30 19:40 29.56915 -89.64294 38931 ft 497 kts 135°
2026-04-30 19:41 29.52498 -89.58194 38933 ft 497 kts 135°
2026-04-30 19:41 29.48084 -89.52107 38930 ft 496 kts 135°
2026-04-30 19:42 29.43663 -89.46019 38933 ft 496 kts 135°
2026-04-30 19:42 29.39247 -89.39947 38931 ft 496 kts 135°
2026-04-30 19:43 29.34829 -89.33881 38934 ft 495 kts 135°
2026-04-30 19:44 29.28202 -89.24800 38933 ft 495 kts 135°
2026-04-30 19:44 29.23779 -89.18751 38935 ft 495 kts 135°
2026-04-30 19:45 29.19351 -89.12703 38932 ft 495 kts 135°
2026-04-30 19:45 29.14924 -89.06665 38932 ft 495 kts 135°
2026-04-30 19:46 29.10491 -89.00629 38933 ft 495 kts 134°
2026-04-30 19:46 29.06059 -88.94601 38932 ft 495 kts 134°
2026-04-30 19:47 29.01620 -88.88574 38937 ft 495 kts 134°
2026-04-30 19:47 28.97180 -88.82555 38937 ft 495 kts 134°
2026-04-30 19:48 28.92760 -88.76572 38939 ft 496 kts 134°
2026-04-30 19:48 28.88304 -88.70546 38936 ft 496 kts 134°
2026-04-30 19:49 28.83848 -88.64532 38937 ft 496 kts 134°
2026-04-30 19:49 28.77164 -88.55526 38942 ft 496 kts 134°
2026-04-30 19:50 28.72698 -88.49519 38937 ft 496 kts 134°
2026-04-30 19:50 28.68234 -88.43522 38939 ft 496 kts 134°
2026-04-30 19:51 28.63787 -88.37559 38941 ft 497 kts 134°
2026-04-30 19:51 28.59312 -88.31565 38939 ft 497 kts 134°
2026-04-30 19:52 28.54833 -88.25575 38940 ft 497 kts 134°
2026-04-30 19:52 28.50353 -88.19591 38941 ft 497 kts 134°
2026-04-30 19:53 28.45864 -88.13604 38937 ft 497 kts 134°
2026-04-30 19:53 28.41375 -88.07625 38938 ft 497 kts 134°
2026-04-30 19:54 28.37549 -88.01055 38942 ft 503 kts 116°
2026-04-30 19:54 28.35203 -87.93580 38952 ft 503 kts 108°
2026-04-30 19:55 28.33118 -87.85988 38944 ft 504 kts 108°
2026-04-30 19:55 28.30991 -87.78411 38938 ft 504 kts 108°
2026-04-30 19:56 28.28811 -87.70842 38944 ft 504 kts 108°
2026-04-30 19:56 28.26613 -87.63287 38941 ft 504 kts 108°
2026-04-30 19:57 28.24413 -87.55738 38943 ft 504 kts 108°
2026-04-30 19:57 28.22211 -87.48192 38944 ft 504 kts 108°
2026-04-30 19:58 28.20006 -87.40645 38944 ft 504 kts 108°
2026-04-30 19:58 28.17799 -87.33110 38946 ft 503 kts 108°
2026-04-30 19:59 28.15590 -87.25586 38945 ft 503 kts 108°
2026-04-30 20:00 28.12272 -87.14315 38944 ft 502 kts 108°
2026-04-30 20:00 28.10059 -87.06820 38944 ft 502 kts 108°
2026-04-30 20:01 28.06732 -86.95581 38943 ft 501 kts 108°
2026-04-30 20:01 28.04511 -86.88098 38949 ft 501 kts 108°
2026-04-30 20:02 28.01175 -86.76889 38952 ft 501 kts 108°
2026-04-30 20:03 27.97903 -86.65657 38948 ft 501 kts 107°
2026-04-30 20:03 27.95747 -86.58169 38949 ft 501 kts 107°
2026-04-30 20:04 27.93582 -86.50687 38951 ft 500 kts 107°
2026-04-30 20:05 27.90320 -86.39477 38950 ft 500 kts 107°
2026-04-30 20:05 27.87054 -86.28297 38947 ft 499 kts 107°
2026-04-30 20:06 27.84870 -86.20842 38952 ft 499 kts 107°
2026-04-30 20:06 27.82687 -86.13404 38950 ft 499 kts 107°
2026-04-30 20:07 27.80517 -86.06027 38955 ft 498 kts 107°
2026-04-30 20:08 27.77234 -85.94898 38949 ft 498 kts 107°
2026-04-30 20:08 27.75040 -85.87481 38951 ft 497 kts 107°
2026-04-30 20:09 27.72844 -85.80075 38951 ft 497 kts 107°
2026-04-30 20:09 27.69548 -85.68985 38949 ft 497 kts 107°
2026-04-30 20:10 27.66244 -85.57907 38946 ft 496 kts 107°
2026-04-30 20:11 27.62934 -85.46844 38949 ft 496 kts 107°
2026-04-30 20:11 27.60725 -85.39475 38950 ft 496 kts 107°
2026-04-30 20:12 27.58019 -85.28273 38964 ft 492 kts 97°
2026-04-30 20:13 27.56834 -85.20731 38948 ft 492 kts 97°
2026-04-30 20:13 27.55528 -85.13163 38952 ft 492 kts 98°
2026-04-30 20:14 27.54194 -85.05607 38950 ft 492 kts 98°
2026-04-30 20:14 27.52861 -84.98048 38950 ft 492 kts 98°
2026-04-30 20:15 27.51528 -84.90494 38950 ft 491 kts 98°
2026-04-30 20:15 27.50192 -84.82942 38949 ft 491 kts 98°
2026-04-30 20:16 27.48853 -84.75401 38950 ft 491 kts 98°
2026-04-30 20:16 27.47520 -84.67927 38876 ft 480 kts 98°
2026-04-30 20:17 27.46199 -84.60527 38959 ft 487 kts 98°
2026-04-30 20:17 27.44852 -84.52996 38960 ft 493 kts 98°
2026-04-30 20:18 27.43492 -84.45433 38950 ft 493 kts 98°
2026-04-30 20:18 27.42125 -84.37867 38946 ft 493 kts 98°
2026-04-30 20:19 27.40756 -84.30310 38951 ft 492 kts 98°
2026-04-30 20:19 27.39389 -84.22784 38952 ft 490 kts 98°
2026-04-30 20:20 27.38021 -84.15276 38948 ft 489 kts 98°
2026-04-30 20:20 27.36654 -84.07793 38950 ft 488 kts 98°
2026-04-30 20:21 27.35286 -84.00332 38951 ft 486 kts 98°
2026-04-30 20:21 27.33918 -83.92893 38949 ft 485 kts 98°
2026-04-30 20:22 27.32550 -83.85476 38957 ft 484 kts 98°
2026-04-30 20:22 27.31176 -83.78053 38856 ft 486 kts 98°
2026-04-30 20:22 27.30485 -83.74321 38744 ft 488 kts 98°
2026-04-30 20:23 27.29792 -83.70591 38627 ft 487 kts 98°
2026-04-30 20:23 27.28642 -83.64417 38401 ft 484 kts 98°
2026-04-30 20:23 27.27952 -83.60718 38247 ft 483 kts 98°
2026-04-30 20:24 27.27261 -83.57021 38082 ft 483 kts 98°
2026-04-30 20:24 27.26570 -83.53328 37925 ft 483 kts 98°
2026-04-30 20:24 27.25879 -83.49640 37765 ft 482 kts 98°
2026-04-30 20:24 27.25187 -83.45949 37611 ft 482 kts 98°
2026-04-30 20:25 27.23802 -83.38583 37301 ft 482 kts 98°
2026-04-30 20:25 27.23107 -83.34901 37147 ft 482 kts 98°
2026-04-30 20:26 27.21715 -83.27533 36853 ft 481 kts 99°
2026-04-30 20:26 27.20329 -83.20218 36587 ft 481 kts 99°
2026-04-30 20:26 27.19632 -83.16545 36451 ft 481 kts 99°
2026-04-30 20:27 27.18233 -83.09193 36180 ft 481 kts 99°
2026-04-30 20:27 27.16829 -83.01844 35914 ft 481 kts 99°
2026-04-30 20:28 27.15423 -82.94496 35653 ft 481 kts 100°
2026-04-30 20:28 27.14013 -82.87148 35391 ft 481 kts 100°
2026-04-30 20:29 27.11529 -82.80196 35134 ft 484 kts 121°
2026-04-30 20:30 27.06096 -82.70646 34742 ft 484 kts 122°
2026-04-30 20:30 27.00746 -82.61027 34356 ft 484 kts 122°
2026-04-30 20:31 26.95440 -82.51374 34008 ft 487 kts 122°
2026-04-30 20:32 26.89800 -82.42313 33599 ft 456 kts 139°
2026-04-30 20:32 26.85061 -82.37814 32718 ft 438 kts 143°
2026-04-30 20:33 26.82718 -82.35671 32313 ft 431 kts 143°
2026-04-30 20:33 26.78170 -82.31436 31528 ft 422 kts 142°
2026-04-30 20:33 26.75929 -82.29311 31155 ft 423 kts 142°
2026-04-30 20:34 26.71436 -82.25019 30342 ft 423 kts 142°
2026-04-30 20:34 26.67021 -82.20789 29489 ft 413 kts 142°
2026-04-30 20:35 26.64843 -82.18706 29075 ft 409 kts 142°
2026-04-30 20:35 26.62694 -82.16654 28682 ft 405 kts 142°
2026-04-30 20:35 26.58444 -82.12598 27925 ft 399 kts 142°
2026-04-30 20:36 26.56350 -82.10601 27570 ft 402 kts 141°
2026-04-30 20:36 26.54215 -82.08567 27198 ft 405 kts 141°
2026-04-30 20:36 26.49988 -82.04435 26423 ft 402 kts 139°
2026-04-30 20:37 26.47922 -82.02341 26052 ft 401 kts 139°
2026-04-30 20:37 26.45865 -82.00250 25681 ft 399 kts 139°
2026-04-30 20:37 26.43817 -81.98172 25312 ft 398 kts 139°
2026-04-30 20:37 26.41764 -81.96097 24930 ft 398 kts 139°
2026-04-30 20:38 26.39714 -81.94030 24560 ft 397 kts 139°
2026-04-30 20:38 26.37663 -81.91966 24166 ft 397 kts 139°
2026-04-30 20:38 26.35613 -81.89906 23802 ft 396 kts 139°
2026-04-30 20:39 26.31530 -81.85805 23004 ft 393 kts 139°
2026-04-30 20:39 26.29507 -81.83774 22610 ft 390 kts 139°
2026-04-30 20:39 26.27496 -81.81757 22239 ft 387 kts 139°
2026-04-30 20:40 26.23629 -81.77655 21477 ft 382 kts 125°
2026-04-30 20:40 26.22330 -81.75101 21175 ft 377 kts 115°
2026-04-30 20:40 26.21201 -81.72474 20813 ft 375 kts 114°
2026-04-30 20:41 26.19006 -81.67239 20117 ft 372 kts 114°
2026-04-30 20:41 26.17902 -81.64642 19771 ft 370 kts 114°
2026-04-30 20:41 26.16792 -81.62060 19427 ft 369 kts 114°
2026-04-30 20:41 26.15679 -81.59488 19061 ft 368 kts 114°
2026-04-30 20:42 26.14564 -81.56924 18721 ft 367 kts 115°
2026-04-30 20:42 26.13451 -81.54370 18376 ft 366 kts 115°
2026-04-30 20:42 26.11246 -81.49315 17608 ft 358 kts 115°
2026-04-30 20:43 26.10169 -81.46848 17258 ft 351 kts 115°
2026-04-30 20:43 26.09113 -81.44429 16931 ft 346 kts 115°
2026-04-30 20:43 26.08065 -81.42034 16608 ft 343 kts 115°
2026-04-30 20:44 26.06002 -81.37311 16015 ft 336 kts 115°
2026-04-30 20:44 26.04985 -81.34977 15694 ft 335 kts 115°
2026-04-30 20:44 26.02936 -81.30271 14703 ft 334 kts 116°
2026-04-30 20:45 26.00941 -81.25698 13776 ft 323 kts 116°
2026-04-30 20:45 25.99980 -81.23496 13276 ft 318 kts 116°
2026-04-30 20:45 25.99019 -81.21295 12764 ft 314 kts 116°
2026-04-30 20:46 25.96211 -81.14872 11289 ft 303 kts 116°
2026-04-30 20:46 25.95288 -81.12765 11072 ft 305 kts 116°
2026-04-30 20:47 25.93424 -81.08506 11004 ft 305 kts 116°
2026-04-30 20:47 25.92500 -81.06399 10993 ft 303 kts 116°
2026-04-30 20:48 25.90681 -81.02151 10938 ft 306 kts 113°
2026-04-30 20:48 25.89852 -80.99976 10737 ft 305 kts 112°
2026-04-30 20:48 25.89030 -80.97783 10343 ft 308 kts 112°
2026-04-30 20:48 25.88205 -80.95597 9944 ft 304 kts 112°
2026-04-30 20:49 25.87385 -80.93449 9532 ft 302 kts 113°
2026-04-30 20:49 25.86563 -80.91303 9109 ft 302 kts 113°
2026-04-30 20:49 25.85741 -80.89163 8689 ft 302 kts 113°
2026-04-30 20:50 25.84100 -80.84895 8027 ft 295 kts 113°
2026-04-30 20:50 25.83305 -80.82827 7993 ft 289 kts 113°
2026-04-30 20:50 25.82519 -80.80785 7982 ft 286 kts 113°
2026-04-30 20:50 25.81739 -80.78762 7987 ft 284 kts 113°
2026-04-30 20:51 25.80964 -80.76749 7980 ft 284 kts 113°
2026-04-30 20:51 25.79404 -80.72702 7768 ft 292 kts 113°
2026-04-30 20:51 25.78572 -80.70548 7137 ft 307 kts 114°
2026-04-30 20:52 25.77736 -80.68384 6558 ft 302 kts 114°
2026-04-30 20:52 25.77160 -80.63880 5388 ft 279 kts 86°
2026-04-30 20:53 25.77280 -80.61767 4801 ft 272 kts 86°
2026-04-30 20:53 25.77390 -80.59691 4268 ft 264 kts 87°
2026-04-30 20:53 25.77499 -80.57753 4087 ft 245 kts 85°
2026-04-30 20:54 25.77707 -80.54231 3923 ft 216 kts 87°
2026-04-30 20:54 25.77775 -80.52588 3681 ft 217 kts 88°
2026-04-30 20:54 25.77841 -80.50896 3396 ft 221 kts 89°
2026-04-30 20:55 25.77972 -80.47543 2814 ft 210 kts 89°
2026-04-30 20:55 25.78035 -80.45964 2587 ft 201 kts 90°
2026-04-30 20:55 25.78095 -80.44427 2336 ft 197 kts 89°
2026-04-30 20:56 25.78214 -80.41446 1817 ft 192 kts 90°
2026-04-30 20:56 25.78275 -80.39982 1529 ft 186 kts 91°
2026-04-30 20:56 25.78378 -80.37323 1111 ft 161 kts 90°
2026-04-30 20:57 25.78425 -80.36131 921 ft 149 kts 91°
2026-04-30 20:57 25.78471 -80.35003 780 ft 142 kts 91°
2026-04-30 20:57 25.78515 -80.33908 554 ft 137 kts 93°
2026-04-30 20:58 25.78600 -80.31784 176 ft 132 kts 92°
2026-04-30 20:58 25.78640 -80.30782 17 ft 126 kts 91°
2026-04-30 20:58 25.78673 -80.29948 13 ft 88 kts 87°
2026-04-30 20:58 25.78697 -80.29438 13 ft 46 kts 86°
2026-04-30 20:59 25.78820 -80.29081 14 ft 20 kts 86°
2026-04-30 20:59 25.78847 -80.28932 22 ft 19 kts 75°
2026-04-30 21:00 25.78916 -80.28685 14 ft 17 kts 359°
2026-04-30 21:00 25.79139 -80.28696 14 ft 15 kts 357°
2026-04-30 21:01 25.79291 -80.28585 14 ft 12 kts 52°
2026-04-30 21:01 25.79265 -80.28500 14 ft 12 kts 120°
2026-04-30 21:01 25.79163 -80.28361 15 ft 11 kts 121°
2026-04-30 21:02 25.79125 -80.28286 14 ft 11 kts 121°
2026-04-30 21:02 25.79085 -80.28216 15 ft 11 kts 118°
2026-04-30 21:02 25.79049 -80.28144 15 ft 10 kts 110°
2026-04-30 21:02 25.79076 -80.28077 14 ft 10 kts 35°
2026-04-30 21:03 25.79139 -80.28043 14 ft 10 kts 28°
2026-04-30 21:03 25.79175 -80.28004 14 ft 7 kts 95°
2026-04-30 21:03 25.79154 -80.27964 14 ft 5 kts 121°
2026-04-30 21:03 25.79148 -80.27952 14 ft 0 kts 121°